Time,TemperatureF,DewpointF,PressureIn,WindDirection,WindDirectionDegrees,WindSpeedMPH,WindSpeedGustMPH,Humidity,HourlyPrecipIn,Conditions,Clouds,dailyrainin,SoftwareType,DateUTC
2013-04-08 00:00:00,46.8,41.6,30.01,WSW,248,4.0,0.0,82,0.00,,,0.00,WeatherTracker,2013-04-08 04:00:00,
2013-04-08 00:05:00,46.8,41.6,30.01,West,269,4.0,0.0,82,0.00,,,0.00,WeatherTracker,2013-04-08 04:05:00,
2013-04-08 00:10:00,46.8,41.6,30.01,WNW,287,2.0,0.0,82,0.00,,,0.00,WeatherTracker,2013-04-08 04:10:00,
2013-04-08 00:15:00,46.8,41.9,30.00,West,271,6.0,0.0,83,0.00,,,0.00,WeatherTracker,2013-04-08 04:15:00,
2013-04-08 00:25:00,46.8,41.9,30.01,WNW,296,2.0,0.0,83,0.00,,,0.00,WeatherTracker,2013-04-08 04:25:00,
2013-04-08 00:30:00,46.8,41.9,30.01,WSW,258,7.0,0.0,83,0.00,,,0.00,WeatherTracker,2013-04-08 04:30:00,
2013-04-08 00:40:00,46.7,42.1,30.00,West,273,3.0,0.0,84,0.00,,,0.00,WeatherTracker,2013-04-08 04:40:00,
2013-04-08 00:50:00,46.6,42.0,30.00,WSW,238,5.0,0.0,84,0.00,,,0.00,WeatherTracker,2013-04-08 04:50:00,
2013-04-08 00:55:00,46.6,42.0,30.00,West,266,6.0,0.0,84,0.00,,,0.00,WeatherTracker,2013-04-08 04:55:00,
2013-04-08 01:05:00,46.5,42.2,30.00,West,267,5.0,0.0,85,0.00,,,0.00,WeatherTracker,2013-04-08 05:05:00,
2013-04-08 01:10:00,46.6,42.3,30.00,WSW,247,4.0,0.0,85,0.00,,,0.00,WeatherTracker,2013-04-08 05:10:00,
2013-04-08 01:15:00,46.5,42.2,30.00,West,268,7.0,0.0,85,0.00,,,0.00,WeatherTracker,2013-04-08 05:15:00,
2013-04-08 01:25:00,46.5,42.5,29.99,West,280,5.0,0.0,86,0.00,,,0.00,WeatherTracker,2013-04-08 05:25:00,
2013-04-08 01:30:00,46.4,42.4,29.99,WNW,288,3.0,0.0,86,0.00,,,0.00,WeatherTracker,2013-04-08 05:30:00,
2013-04-08 01:35:00,46.3,42.3,29.99,SW,216,3.0,0.0,86,0.00,,,0.00,WeatherTracker,2013-04-08 05:35:00,
2013-04-08 01:40:00,46.3,42.3,29.99,WSW,257,2.0,0.0,86,0.00,,,0.00,WeatherTracker,2013-04-08 05:40:00,
2013-04-08 01:45:00,46.2,42.5,29.99,West,273,5.0,0.0,87,0.00,,,0.00,WeatherTracker,2013-04-08 05:45:00,
2013-04-08 01:50:00,46.2,42.5,29.99,WSW,257,3.0,0.0,87,0.00,,,0.00,WeatherTracker,2013-04-08 05:50:00,
2013-04-08 02:00:00,46.1,42.4,29.99,WNW,288,1.0,0.0,87,0.00,,,0.00,WeatherTracker,2013-04-08 06:00:00,
2013-04-08 02:05:00,46.1,42.4,29.99,West,269,1.0,0.0,87,0.00,,,0.00,WeatherTracker,2013-04-08 06:05:00,
2013-04-08 02:10:00,46.0,42.6,29.98,West,270,2.0,0.0,88,0.00,,,0.00,WeatherTracker,2013-04-08 06:10:00,
2013-04-08 02:20:00,45.7,42.4,29.98,WSW,252,3.0,0.0,88,0.00,,,0.00,WeatherTracker,2013-04-08 06:20:00,
2013-04-08 02:25:00,45.6,42.3,29.98,SW,234,4.0,0.0,88,0.00,,,0.00,WeatherTracker,2013-04-08 06:25:00,
2013-04-08 02:30:00,45.5,42.2,29.98,WSW,257,1.0,0.0,88,0.00,,,0.00,WeatherTracker,2013-04-08 06:30:00,
2013-04-08 02:35:00,45.5,42.4,29.98,West,269,4.0,0.0,89,0.00,,,0.00,WeatherTracker,2013-04-08 06:35:00,
2013-04-08 02:45:00,45.4,42.4,29.97,WSW,258,4.0,0.0,89,0.00,,,0.00,WeatherTracker,2013-04-08 06:45:00,
2013-04-08 02:50:00,45.4,42.6,29.98,WSW,258,1.0,0.0,90,0.00,,,0.00,WeatherTracker,2013-04-08 06:50:00,
2013-04-08 03:00:00,45.4,42.6,29.97,WSW,242,3.0,0.0,90,0.00,,,0.00,WeatherTracker,2013-04-08 07:00:00,
2013-04-08 03:05:00,45.4,42.6,29.97,WSW,249,3.0,0.0,90,0.00,,,0.00,WeatherTracker,2013-04-08 07:05:00,
2013-04-08 03:15:00,45.3,42.5,29.97,West,259,2.0,0.0,90,0.00,,,0.00,WeatherTracker,2013-04-08 07:15:00,
2013-04-08 03:20:00,45.2,42.4,29.97,SW,232,3.0,0.0,90,0.00,,,0.00,WeatherTracker,2013-04-08 07:20:00,
2013-04-08 03:30:00,45.1,42.3,29.96,West,266,4.0,0.0,90,0.00,,,0.00,WeatherTracker,2013-04-08 07:30:00,
2013-04-08 03:35:00,45.0,42.5,29.96,WSW,257,2.0,0.0,91,0.00,,,0.00,WeatherTracker,2013-04-08 07:35:00,
2013-04-08 03:40:00,44.9,42.4,29.96,WNW,283,4.0,0.0,91,0.00,,,0.00,WeatherTracker,2013-04-08 07:40:00,
2013-04-08 03:45:00,44.9,42.4,29.96,WSW,240,2.0,0.0,91,0.00,,,0.00,WeatherTracker,2013-04-08 07:45:00,
2013-04-08 03:55:00,44.9,42.4,29.96,SW,216,5.0,0.0,91,0.00,,,0.00,WeatherTracker,2013-04-08 07:55:00,
2013-04-08 04:00:00,44.9,42.4,29.96,West,280,2.0,0.0,91,0.00,,,0.00,WeatherTracker,2013-04-08 08:00:00,
2013-04-08 04:10:00,44.9,42.7,29.96,West,264,1.0,0.0,92,0.00,,,0.00,WeatherTracker,2013-04-08 08:10:00,
2013-04-08 04:20:00,44.8,42.6,29.96,WNW,290,1.0,0.0,92,0.00,,,0.00,WeatherTracker,2013-04-08 08:20:00,
2013-04-08 04:25:00,44.8,42.6,29.96,West,263,2.0,0.0,92,0.00,,,0.00,WeatherTracker,2013-04-08 08:25:00,
2013-04-08 04:35:00,44.7,42.5,29.96,West,262,0.0,0.0,92,0.00,,,0.00,WeatherTracker,2013-04-08 08:35:00,
2013-04-08 04:40:00,44.7,42.5,29.97,West,267,1.0,0.0,92,0.00,,,0.00,WeatherTracker,2013-04-08 08:40:00,
2013-04-08 04:45:00,44.5,42.3,29.97,West,267,0.0,0.0,92,0.00,,,0.00,WeatherTracker,2013-04-08 08:45:00,
2013-04-08 04:55:00,44.1,41.6,29.97,West,267,1.0,0.0,91,0.00,,,0.00,WeatherTracker,2013-04-08 08:55:00,
2013-04-08 05:00:00,43.8,41.3,29.98,West,267,1.0,0.0,91,0.00,,,0.00,WeatherTracker,2013-04-08 09:00:00,
2013-04-08 05:05:00,43.6,41.4,29.97,West,267,0.0,0.0,92,0.00,,,0.00,WeatherTracker,2013-04-08 09:05:00,
2013-04-08 05:10:00,43.4,41.2,29.97,West,267,1.0,0.0,92,0.00,,,0.00,WeatherTracker,2013-04-08 09:10:00,
2013-04-08 05:20:00,43.2,41.3,29.97,WNW,285,2.0,0.0,93,0.00,,,0.00,WeatherTracker,2013-04-08 09:20:00,
2013-04-08 05:25:00,43.2,41.6,29.97,West,271,2.0,0.0,94,0.00,,,0.00,WeatherTracker,2013-04-08 09:25:00,
2013-04-08 05:35:00,43.3,41.7,29.97,WNW,286,2.0,0.0,94,0.00,,,0.00,WeatherTracker,2013-04-08 09:35:00,
2013-04-08 05:40:00,43.2,41.6,29.98,WNW,300,2.0,0.0,94,0.00,,,0.00,WeatherTracker,2013-04-08 09:40:00,
2013-04-08 05:45:00,43.3,42.0,29.98,WNW,296,2.0,0.0,95,0.00,,,0.00,WeatherTracker,2013-04-08 09:45:00,
2013-04-08 05:50:00,43.2,41.9,29.98,WNW,286,1.0,0.0,95,0.00,,,0.00,WeatherTracker,2013-04-08 09:50:00,
2013-04-08 06:00:00,43.2,41.9,29.98,West,263,2.0,0.0,95,0.00,,,0.00,WeatherTracker,2013-04-08 10:00:00,
2013-04-08 06:10:00,43.1,41.8,29.98,West,281,2.0,0.0,95,0.00,,,0.00,WeatherTracker,2013-04-08 10:10:00,
2013-04-08 06:15:00,43.1,41.8,29.98,West,281,2.0,0.0,95,0.00,,,0.00,WeatherTracker,2013-04-08 10:15:00,
2013-04-08 06:25:00,42.9,41.6,29.98,West,280,1.0,0.0,95,0.00,,,0.00,WeatherTracker,2013-04-08 10:25:00,
2013-04-08 06:35:00,42.8,41.5,29.99,WNW,283,1.0,0.0,95,0.00,,,0.00,WeatherTracker,2013-04-08 10:35:00,
2013-04-08 06:40:00,42.7,41.4,29.99,West,281,0.0,0.0,95,0.00,,,0.00,WeatherTracker,2013-04-08 10:40:00,
2013-04-08 06:45:00,42.7,41.4,29.99,West,268,2.0,0.0,95,0.00,,,0.00,WeatherTracker,2013-04-08 10:45:00,
2013-04-08 06:50:00,42.7,41.4,29.99,West,275,2.0,0.0,95,0.00,,,0.00,WeatherTracker,2013-04-08 10:50:00,
2013-04-08 07:00:00,42.9,41.6,30.00,WNW,285,3.0,0.0,95,0.00,,,0.00,WeatherTracker,2013-04-08 11:00:00,
2013-04-08 07:10:00,43.1,42.0,30.00,WNW,288,2.0,0.0,96,0.00,,,0.00,WeatherTracker,2013-04-08 11:10:00,
2013-04-08 07:20:00,43.5,42.4,30.00,NW,323,1.0,0.0,96,0.00,,,0.00,WeatherTracker,2013-04-08 11:20:00,
2013-04-08 07:25:00,43.8,42.7,30.00,NW,306,1.0,0.0,96,0.00,,,0.00,WeatherTracker,2013-04-08 11:25:00,
2013-04-08 07:30:00,44.1,42.8,30.00,WSW,250,1.0,0.0,95,0.00,,,0.00,WeatherTracker,2013-04-08 11:30:00,
2013-04-08 07:35:00,44.3,43.0,30.00,WSW,254,1.0,0.0,95,0.00,,,0.00,WeatherTracker,2013-04-08 11:35:00,
2013-04-08 07:40:00,44.5,42.9,30.00,WSW,258,1.0,0.0,94,0.00,,,0.00,WeatherTracker,2013-04-08 11:40:00,
2013-04-08 07:50:00,44.9,43.0,30.01,West,275,2.0,0.0,93,0.00,,,0.00,WeatherTracker,2013-04-08 11:50:00,
2013-04-08 08:00:00,45.4,43.2,30.02,WNW,286,3.0,0.0,92,0.00,,,0.00,WeatherTracker,2013-04-08 12:00:00,
2013-04-08 08:10:00,45.9,43.1,30.02,West,263,1.0,0.0,90,0.00,,,0.00,WeatherTracker,2013-04-08 12:10:00,
2013-04-08 08:15:00,46.1,43.0,30.02,West,263,2.0,0.0,89,0.00,,,0.00,WeatherTracker,2013-04-08 12:15:00,
2013-04-08 08:20:00,46.4,43.3,30.02,West,266,0.0,0.0,89,0.00,,,0.00,WeatherTracker,2013-04-08 12:20:00,
2013-04-08 08:30:00,47.2,42.9,30.02,WNW,298,3.0,0.0,85,0.00,,,0.00,WeatherTracker,2013-04-08 12:30:00,
2013-04-08 08:40:00,47.7,42.8,30.02,NW,321,2.0,0.0,83,0.00,,,0.00,WeatherTracker,2013-04-08 12:40:00,
2013-04-08 08:50:00,48.1,42.5,30.02,WNW,296,2.0,0.0,81,0.00,,,0.00,WeatherTracker,2013-04-08 12:50:00,
2013-04-08 09:00:00,48.5,42.3,30.02,NNW,336,4.0,0.0,79,0.00,,,0.00,WeatherTracker,2013-04-08 13:00:00,
2013-04-08 09:05:00,48.7,42.2,30.02,North,355,2.0,0.0,78,0.00,,,0.00,WeatherTracker,2013-04-08 13:05:00,
2013-04-08 09:10:00,48.9,42.3,30.02,North,355,0.0,0.0,78,0.00,,,0.00,WeatherTracker,2013-04-08 13:10:00,
2013-04-08 09:15:00,49.3,42.7,30.02,North,355,1.0,0.0,78,0.00,,,0.00,WeatherTracker,2013-04-08 13:15:00,
2013-04-08 09:20:00,49.6,42.3,30.02,North,355,1.0,0.0,76,0.00,,,0.00,WeatherTracker,2013-04-08 13:20:00,
2013-04-08 09:35:00,50.4,41.7,30.02,NNE,15,3.0,0.0,72,0.00,,,0.00,WeatherTracker,2013-04-08 13:35:00,
2013-04-08 09:45:00,50.9,41.8,30.03,North,5,2.0,0.0,71,0.00,,,0.00,WeatherTracker,2013-04-08 13:45:00,
2013-04-08 09:55:00,51.3,41.5,30.03,WNW,288,0.0,0.0,69,0.00,,,0.00,WeatherTracker,2013-04-08 13:55:00,
2013-04-08 10:00:00,51.7,41.1,30.03,North,360,2.0,0.0,67,0.00,,,0.00,WeatherTracker,2013-04-08 14:00:00,
2013-04-08 10:10:00,52.4,41.0,30.04,NNE,26,0.0,0.0,65,0.00,,,0.00,WeatherTracker,2013-04-08 14:10:00,
2013-04-08 10:15:00,53.0,40.3,30.04,North,355,3.0,0.0,62,0.00,,,0.00,WeatherTracker,2013-04-08 14:15:00,
2013-04-08 10:20:00,53.5,40.4,30.04,NNW,340,3.0,0.0,61,0.00,,,0.00,WeatherTracker,2013-04-08 14:20:00,
2013-04-08 10:30:00,54.1,39.7,30.04,NW,321,2.0,0.0,58,0.00,,,0.00,WeatherTracker,2013-04-08 14:30:00,
2013-04-08 10:35:00,54.3,39.4,30.04,North,355,3.0,0.0,57,0.00,,,0.00,WeatherTracker,2013-04-08 14:35:00,
2013-04-08 10:40:00,54.5,39.6,30.04,NE,49,2.0,0.0,57,0.00,,,0.00,WeatherTracker,2013-04-08 14:40:00,
2013-04-08 10:50:00,55.0,39.1,30.05,NNW,341,2.0,0.0,55,0.00,,,0.00,WeatherTracker,2013-04-08 14:50:00,
2013-04-08 10:55:00,55.5,39.6,30.05,NNW,345,3.0,0.0,55,0.00,,,0.00,WeatherTracker,2013-04-08 14:55:00,
2013-04-08 11:00:00,55.8,39.4,30.05,NW,315,2.0,0.0,54,0.00,,,0.00,WeatherTracker,2013-04-08 15:00:00,
2013-04-08 11:05:00,56.2,39.3,30.06,NNW,336,8.0,0.0,53,0.00,,,0.00,WeatherTracker,2013-04-08 15:05:00,
2013-04-08 11:15:00,56.9,39.9,30.05,East,100,2.0,0.0,53,0.00,,,0.00,WeatherTracker,2013-04-08 15:15:00,
2013-04-08 11:20:00,57.5,40.0,30.05,WNW,291,4.0,0.0,52,0.00,,,0.00,WeatherTracker,2013-04-08 15:20:00,
2013-04-08 11:30:00,57.3,38.8,30.06,North,350,2.0,0.0,50,0.00,,,0.00,WeatherTracker,2013-04-08 15:30:00,
2013-04-08 11:40:00,57.2,39.7,30.06,NNW,346,3.0,0.0,52,0.00,,,0.00,WeatherTracker,2013-04-08 15:40:00,
2013-04-08 11:45:00,57.1,39.6,30.05,North,350,4.0,0.0,52,0.00,,,0.00,WeatherTracker,2013-04-08 15:45:00,
2013-04-08 11:55:00,57.5,40.0,30.05,East,96,8.0,0.0,52,0.00,,,0.00,WeatherTracker,2013-04-08 15:55:00,
2013-04-08 12:00:00,58.0,40.0,30.06,NNW,342,4.0,0.0,51,0.00,,,0.00,WeatherTracker,2013-04-08 16:00:00,
2013-04-08 12:05:00,57.9,39.4,30.05,SW,218,0.0,0.0,50,0.00,,,0.00,WeatherTracker,2013-04-08 16:05:00,
2013-04-08 12:15:00,58.4,40.3,30.05,NW,305,2.0,0.0,51,0.00,,,0.00,WeatherTracker,2013-04-08 16:15:00,
2013-04-08 12:20:00,58.9,40.3,30.06,West,279,1.0,0.0,50,0.00,,,0.00,WeatherTracker,2013-04-08 16:20:00,
2013-04-08 12:25:00,59.0,39.9,30.06,NNW,328,3.0,0.0,49,0.00,,,0.00,WeatherTracker,2013-04-08 16:25:00,
2013-04-08 12:30:00,59.2,40.0,30.06,NW,313,4.0,0.0,49,0.00,,,0.00,WeatherTracker,2013-04-08 16:30:00,
2013-04-08 12:35:00,59.4,40.2,30.05,NW,325,1.0,0.0,49,0.00,,,0.00,WeatherTracker,2013-04-08 16:35:00,
2013-04-08 12:45:00,59.8,40.1,30.05,ENE,71,4.0,0.0,48,0.00,,,0.00,WeatherTracker,2013-04-08 16:45:00,
2013-04-08 12:55:00,60.5,39.6,30.05,WSW,252,4.0,0.0,46,0.00,,,0.00,WeatherTracker,2013-04-08 16:55:00,
2013-04-08 13:05:00,61.0,40.1,30.05,NNW,346,5.0,0.0,46,0.00,,,0.00,WeatherTracker,2013-04-08 17:05:00,
2013-04-08 13:10:00,61.5,39.4,30.05,NE,48,1.0,0.0,44,0.00,,,0.00,WeatherTracker,2013-04-08 17:10:00,
2013-04-08 13:20:00,61.4,39.9,30.05,ENE,67,1.0,0.0,45,0.00,,,0.00,WeatherTracker,2013-04-08 17:20:00,
2013-04-08 13:25:00,62.1,40.5,30.06,NNW,338,3.0,0.0,45,0.00,,,0.00,WeatherTracker,2013-04-08 17:25:00,
2013-04-08 13:35:00,62.3,39.5,30.05,NNW,335,4.0,0.0,43,0.00,,,0.00,WeatherTracker,2013-04-08 17:35:00,
2013-04-08 13:40:00,62.4,39.6,30.05,NW,304,1.0,0.0,43,0.00,,,0.00,WeatherTracker,2013-04-08 17:40:00,
2013-04-08 13:45:00,62.5,39.7,30.05,West,280,4.0,0.0,43,0.00,,,0.00,WeatherTracker,2013-04-08 17:45:00,
2013-04-08 13:55:00,63.3,39.2,30.05,NNE,26,2.0,0.0,41,0.00,,,0.00,WeatherTracker,2013-04-08 17:55:00,
2013-04-08 14:00:00,63.4,38.7,30.05,WSW,244,1.0,0.0,40,0.00,,,0.00,WeatherTracker,2013-04-08 18:00:00,
2013-04-08 14:05:00,63.4,38.0,30.05,North,349,3.0,0.0,39,0.00,,,0.00,WeatherTracker,2013-04-08 18:05:00,
2013-04-08 14:15:00,63.2,37.2,30.05,NW,317,2.0,0.0,38,0.00,,,0.00,WeatherTracker,2013-04-08 18:15:00,
2013-04-08 14:20:00,63.5,38.1,30.05,WSW,254,2.0,0.0,39,0.00,,,0.00,WeatherTracker,2013-04-08 18:20:00,
2013-04-08 14:30:00,64.0,37.9,30.04,WNW,291,1.0,0.0,38,0.00,,,0.00,WeatherTracker,2013-04-08 18:30:00,
2013-04-08 14:35:00,64.0,37.9,30.04,WSW,249,0.0,0.0,38,0.00,,,0.00,WeatherTracker,2013-04-08 18:35:00,
2013-04-08 14:45:00,64.6,37.7,30.04,NNE,30,3.0,0.0,37,0.00,,,0.00,WeatherTracker,2013-04-08 18:45:00,
2013-04-08 14:50:00,64.7,37.1,30.04,NW,304,3.0,0.0,36,0.00,,,0.00,WeatherTracker,2013-04-08 18:50:00,
2013-04-08 14:55:00,65.0,36.7,30.04,North,5,1.0,0.0,35,0.00,,,0.00,WeatherTracker,2013-04-08 18:55:00,
2013-04-08 15:05:00,65.5,37.1,30.04,North,360,3.0,0.0,35,0.00,,,0.00,WeatherTracker,2013-04-08 19:05:00,
2013-04-08 15:10:00,65.3,36.9,30.03,WSW,251,1.0,0.0,35,0.00,,,0.00,WeatherTracker,2013-04-08 19:10:00,
2013-04-08 15:15:00,65.1,36.0,30.03,NNW,329,6.0,0.0,34,0.00,,,0.00,WeatherTracker,2013-04-08 19:15:00,
2013-04-08 15:25:00,65.2,35.4,30.03,North,360,2.0,0.0,33,0.00,,,0.00,WeatherTracker,2013-04-08 19:25:00,
2013-04-08 15:30:00,65.4,36.3,30.03,North,355,1.0,0.0,34,0.00,,,0.00,WeatherTracker,2013-04-08 19:30:00,
2013-04-08 15:35:00,65.4,35.5,30.03,SE,144,3.0,0.0,33,0.00,,,0.00,WeatherTracker,2013-04-08 19:35:00,
2013-04-08 15:45:00,65.2,36.1,30.03,North,5,4.0,0.0,34,0.00,,,0.00,WeatherTracker,2013-04-08 19:45:00,
2013-04-08 15:50:00,65.3,35.5,30.03,SSW,208,1.0,0.0,33,0.00,,,0.00,WeatherTracker,2013-04-08 19:50:00,
2013-04-08 16:00:00,66.3,35.6,30.03,NNW,336,3.0,0.0,32,0.00,,,0.00,WeatherTracker,2013-04-08 20:00:00,
2013-04-08 16:05:00,66.5,34.9,30.02,WSW,239,3.0,0.0,31,0.00,,,0.00,WeatherTracker,2013-04-08 20:05:00,
2013-04-08 16:10:00,66.6,34.2,30.02,NW,325,0.0,0.0,30,0.00,,,0.00,WeatherTracker,2013-04-08 20:10:00,
2013-04-08 16:15:00,66.6,34.2,30.02,NNW,336,2.0,0.0,30,0.00,,,0.00,WeatherTracker,2013-04-08 20:15:00,
2013-04-08 16:20:00,66.9,34.5,30.02,North,5,4.0,0.0,30,0.00,,,0.00,WeatherTracker,2013-04-08 20:20:00,
2013-04-08 16:30:00,67.2,33.0,30.02,WSW,244,1.0,0.0,28,0.00,,,0.00,WeatherTracker,2013-04-08 20:30:00,
2013-04-08 16:40:00,66.5,33.3,30.03,ESE,114,0.0,0.0,29,0.00,,,0.00,WeatherTracker,2013-04-08 20:40:00,
2013-04-08 16:50:00,66.3,33.9,30.02,East,94,1.0,0.0,30,0.00,,,0.00,WeatherTracker,2013-04-08 20:50:00,
2013-04-08 16:55:00,66.7,34.3,30.02,SSE,149,0.0,0.0,30,0.00,,,0.00,WeatherTracker,2013-04-08 20:55:00,
2013-04-08 17:00:00,67.0,34.5,30.03,NNE,26,1.0,0.0,30,0.00,,,0.00,WeatherTracker,2013-04-08 21:00:00,
2013-04-08 17:05:00,66.9,33.6,30.03,NW,309,0.0,0.0,29,0.00,,,0.00,WeatherTracker,2013-04-08 21:05:00,
2013-04-08 17:10:00,66.8,33.5,30.02,SSW,202,1.0,0.0,29,0.00,,,0.00,WeatherTracker,2013-04-08 21:10:00,
2013-04-08 17:15:00,66.6,34.2,30.02,South,169,1.0,0.0,30,0.00,,,0.00,WeatherTracker,2013-04-08 21:15:00,
2013-04-08 17:25:00,67.1,33.8,30.02,South,190,2.0,0.0,29,0.00,,,0.00,WeatherTracker,2013-04-08 21:25:00,
2013-04-08 17:35:00,66.8,33.5,30.02,West,263,0.0,0.0,29,0.00,,,0.00,WeatherTracker,2013-04-08 21:35:00,
2013-04-08 17:45:00,66.6,33.3,30.02,SSE,163,2.0,0.0,29,0.00,,,0.00,WeatherTracker,2013-04-08 21:45:00,
2013-04-08 17:50:00,66.4,34.0,30.02,West,269,2.0,0.0,30,0.00,,,0.00,WeatherTracker,2013-04-08 21:50:00,
2013-04-08 18:00:00,66.3,33.1,30.03,West,259,1.0,0.0,29,0.00,,,0.00,WeatherTracker,2013-04-08 22:00:00,
2013-04-08 18:10:00,66.2,33.8,30.03,WSW,238,3.0,0.0,30,0.00,,,0.00,WeatherTracker,2013-04-08 22:10:00,
2013-04-08 18:20:00,65.7,34.2,30.03,WNW,284,1.0,0.0,31,0.00,,,0.00,WeatherTracker,2013-04-08 22:20:00,
2013-04-08 18:25:00,65.4,33.2,30.03,West,281,0.0,0.0,30,0.00,,,0.00,WeatherTracker,2013-04-08 22:25:00,
2013-04-08 18:30:00,65.2,35.4,30.04,West,281,0.0,0.0,33,0.00,,,0.00,WeatherTracker,2013-04-08 22:30:00,
2013-04-08 18:40:00,64.7,36.4,30.04,West,281,0.0,0.0,35,0.00,,,0.00,WeatherTracker,2013-04-08 22:40:00,
2013-04-08 18:50:00,64.2,36.0,30.04,West,281,0.0,0.0,35,0.00,,,0.00,WeatherTracker,2013-04-08 22:50:00,
2013-04-08 18:55:00,63.9,36.4,30.04,West,281,0.0,0.0,36,0.00,,,0.00,WeatherTracker,2013-04-08 22:55:00,
2013-04-08 19:05:00,63.0,36.3,30.04,West,281,0.0,0.0,37,0.00,,,0.00,WeatherTracker,2013-04-08 23:05:00,
2013-04-08 19:10:00,62.5,36.5,30.04,West,281,1.0,0.0,38,0.00,,,0.00,WeatherTracker,2013-04-08 23:10:00,
2013-04-08 19:15:00,61.4,37.5,30.05,SSE,150,4.0,0.0,41,0.00,,,0.00,WeatherTracker,2013-04-08 23:15:00,
2013-04-08 19:25:00,59.9,38.5,30.05,SSW,202,0.0,0.0,45,0.00,,,0.00,WeatherTracker,2013-04-08 23:25:00,
2013-04-08 19:30:00,59.4,39.2,30.06,South,186,1.0,0.0,47,0.00,,,0.00,WeatherTracker,2013-04-08 23:30:00,
2013-04-08 19:35:00,59.0,39.3,30.06,South,183,2.0,0.0,48,0.00,,,0.00,WeatherTracker,2013-04-08 23:35:00,
2013-04-08 19:40:00,58.7,39.6,30.06,South,173,3.0,0.0,49,0.00,,,0.00,WeatherTracker,2013-04-08 23:40:00,
2013-04-08 19:50:00,58.1,40.6,30.06,SSE,159,3.0,0.0,52,0.00,,,0.00,WeatherTracker,2013-04-08 23:50:00,
2013-04-08 19:55:00,57.8,40.8,30.06,SSE,160,2.0,0.0,53,0.00,,,0.00,WeatherTracker,2013-04-08 23:55:00,
2013-04-08 20:05:00,57.4,41.4,30.06,WSW,258,1.0,0.0,55,0.00,,,0.00,WeatherTracker,2013-04-09 00:05:00,
2013-04-08 20:10:00,57.2,41.6,30.06,SSW,205,0.0,0.0,56,0.00,,,0.00,WeatherTracker,2013-04-09 00:10:00,
2013-04-08 20:20:00,56.8,41.7,30.06,SSW,211,4.0,0.0,57,0.00,,,0.00,WeatherTracker,2013-04-09 00:20:00,
2013-04-08 20:25:00,56.6,41.5,30.06,ESE,121,4.0,0.0,57,0.00,,,0.00,WeatherTracker,2013-04-09 00:25:00,
2013-04-08 20:30:00,56.4,41.8,30.07,NNW,333,5.0,0.0,58,0.00,,,0.00,WeatherTracker,2013-04-09 00:30:00,
2013-04-08 20:35:00,56.2,42.1,30.07,SW,229,4.0,0.0,59,0.00,,,0.00,WeatherTracker,2013-04-09 00:35:00,
2013-04-08 20:40:00,56.1,42.0,30.07,SW,223,6.0,0.0,59,0.00,,,0.00,WeatherTracker,2013-04-09 00:40:00,
2013-04-08 20:50:00,55.9,42.2,30.07,SSE,163,6.0,0.0,60,0.00,,,0.00,WeatherTracker,2013-04-09 00:50:00,
2013-04-08 20:55:00,55.7,42.0,30.08,West,265,1.0,0.0,60,0.00,,,0.00,WeatherTracker,2013-04-09 00:55:00,
2013-04-08 21:05:00,55.5,41.8,30.08,West,267,1.0,0.0,60,0.00,,,0.00,WeatherTracker,2013-04-09 01:05:00,
2013-04-08 21:10:00,55.3,42.1,30.08,SW,226,0.0,0.0,61,0.00,,,0.00,WeatherTracker,2013-04-09 01:10:00,
2013-04-08 21:20:00,55.0,42.2,30.08,SSW,193,1.0,0.0,62,0.00,,,0.00,WeatherTracker,2013-04-09 01:20:00,
2013-04-08 21:25:00,54.8,42.0,30.08,SSW,195,1.0,0.0,62,0.00,,,0.00,WeatherTracker,2013-04-09 01:25:00,
2013-04-08 21:35:00,54.6,42.3,30.08,South,186,2.0,0.0,63,0.00,,,0.00,WeatherTracker,2013-04-09 01:35:00,
2013-04-08 21:40:00,54.5,42.2,30.08,SW,221,1.0,0.0,63,0.00,,,0.00,WeatherTracker,2013-04-09 01:40:00,
2013-04-08 21:45:00,54.3,42.4,30.08,West,271,3.0,0.0,64,0.00,,,0.00,WeatherTracker,2013-04-09 01:45:00,
2013-04-08 21:50:00,54.2,42.3,30.07,WNW,291,1.0,0.0,64,0.00,,,0.00,WeatherTracker,2013-04-09 01:50:00,
2013-04-08 22:00:00,54.0,42.5,30.08,WSW,240,2.0,0.0,65,0.00,,,0.00,WeatherTracker,2013-04-09 02:00:00,
2013-04-08 22:05:00,53.9,42.4,30.07,SE,130,2.0,0.0,65,0.00,,,0.00,WeatherTracker,2013-04-09 02:05:00,
2013-04-08 22:15:00,53.8,42.7,30.08,WSW,242,1.0,0.0,66,0.00,,,0.00,WeatherTracker,2013-04-09 02:15:00,
2013-04-08 22:20:00,53.7,42.6,30.08,WSW,254,5.0,0.0,66,0.00,,,0.00,WeatherTracker,2013-04-09 02:20:00,
2013-04-08 22:30:00,53.5,42.8,30.08,WSW,240,3.0,0.0,67,0.00,,,0.00,WeatherTracker,2013-04-09 02:30:00,
2013-04-08 22:40:00,53.3,43.0,30.08,SSW,204,0.0,0.0,68,0.00,,,0.00,WeatherTracker,2013-04-09 02:40:00,
2013-04-08 22:50:00,53.1,42.8,30.07,West,273,1.0,0.0,68,0.00,,,0.00,WeatherTracker,2013-04-09 02:50:00,
2013-04-08 23:00:00,52.9,43.0,30.07,WSW,256,5.0,0.0,69,0.00,,,0.00,WeatherTracker,2013-04-09 03:00:00,
2013-04-08 23:10:00,52.7,43.2,30.08,WSW,238,3.0,0.0,70,0.00,,,0.00,WeatherTracker,2013-04-09 03:10:00,
2013-04-08 23:20:00,52.5,43.0,30.07,South,190,0.0,0.0,70,0.00,,,0.00,WeatherTracker,2013-04-09 03:20:00,
2013-04-08 23:25:00,52.5,43.0,30.07,SW,222,3.0,0.0,70,0.00,,,0.00,WeatherTracker,2013-04-09 03:25:00,
2013-04-08 23:35:00,52.3,43.2,30.07,WSW,240,5.0,0.0,71,0.00,,,0.00,WeatherTracker,2013-04-09 03:35:00,
2013-04-08 23:40:00,52.2,43.1,30.07,SW,234,1.0,0.0,71,0.00,,,0.00,WeatherTracker,2013-04-09 03:40:00,
2013-04-08 23:45:00,52.1,43.0,30.07,WSW,251,2.0,0.0,71,0.00,,,0.00,WeatherTracker,2013-04-09 03:45:00,
2013-04-08 23:50:00,52.0,43.3,30.07,WSW,241,5.0,0.0,72,0.00,,,0.00,WeatherTracker,2013-04-09 03:50:00,
2013-04-08 23:55:00,51.9,43.2,30.08,SW,234,4.0,0.0,72,0.00,,,0.00,WeatherTracker,2013-04-09 03:55:00,